Princeton, MN

3:16 AM CDT on September 24, 2017 (GMT -0500)
Princeton Municipal

Weather History for KPNM - January, 2013

Change the Weather History Date:

Monday, January 28, 2013

  Actual Average Record
Temperature  
Mean Temperature 30 °F -  
Max Temperature 33 °F 22 °F 41 °F (2008)
Min Temperature 26 °F 5 °F -25 °F (2014)
Degree Days  
Heating Degree Days 36    
Moisture  
Dew Point 29 °F    
Average Humidity 94    
Maximum Humidity 100    
Minimum Humidity 87    
Precipitation  
Precipitation 0.13 in - - ()
Sea Level Pressure  
Sea Level Pressure 29.80 in    
Wind  
Wind Speed 2 mph (ESE)    
Max Wind Speed 9 mph    
Max Gust Speed -    
Visibility 2 miles    
Events Fog , Snow    
Averages and records for this station are not official NWS values.
T = Trace of Precipitation, MM = Missing Value Source: NWS Daily Summary

Daily Weather History Graph

Daily Weather History Graph

Search for Another Location

Airport or City:

Trip Planner

Search our weather history database for the weather conditions in past years. The results will help you decide how hot, cold, wet, or windy it might be!

Date:

Astronomy

Jan. 28, 2013 Rise Set
Actual Time 7:39 AM CST 5:15 PM CST
Civil Twilight 7:07 AM CST 5:47 PM CST
Nautical Twilight 6:32 AM CST 6:23 PM CST
Astronomical Twilight 5:57 AM CST 6:58 PM CST
Moon 7:19 PM CST (1/28) 7:58 AM CST (1/28)
Length of Visible Light 10h 39m
Length of Day
9h 35m
Full, 98% of the Moon is Illuminated
Jan 28
Full
Feb 3
Last Quarter
Feb 10
New
Feb 17
First Quarter
Feb 25
Full

Hourly Weather History & Observations

Time (CST) Temp. Windchill Dew Point Humidity Pressure Visibility Wind Dir Wind Speed Gust Speed Precip Events Conditions
12:12 AM 28.4 °F - 26.6 °F 93% 29.80 in 2.0 mi Calm Calm - N/A Snow Light Snow
12:31 AM 28.4 °F - 26.6 °F 93% 29.80 in 2.5 mi Calm Calm - N/A Snow Light Snow
12:51 AM 26.6 °F - 26.6 °F 100% 29.80 in 3.0 mi Calm Calm - N/A Snow Light Snow
1:12 AM 26.6 °F - 26.6 °F 100% 29.80 in 3.0 mi Calm Calm - N/A Snow Light Snow
1:51 AM 26.6 °F - 24.8 °F 93% 29.79 in 3.0 mi Calm Calm - N/A Snow Light Snow
2:12 AM 26.6 °F - 24.8 °F 93% 29.81 in 3.0 mi Calm Calm - N/A Snow Light Snow
2:51 AM 26.6 °F - 26.6 °F 100% 29.80 in 3.0 mi Calm Calm - N/A   Overcast
3:12 AM 26.6 °F - 26.6 °F 100% 29.81 in 3.0 mi Calm Calm - N/A   Overcast
3:31 AM 26.6 °F - 26.6 °F 100% 29.81 in 3.0 mi Calm Calm - N/A   Overcast
3:51 AM 26.6 °F - 24.8 °F 93% 29.82 in 3.0 mi Calm Calm - N/A   Overcast
4:12 AM 26.6 °F - 26.6 °F 100% 29.83 in 3.0 mi Calm Calm - N/A   Overcast
4:31 AM 26.6 °F - 26.6 °F 100% 29.81 in 3.0 mi Calm Calm - N/A   Overcast
4:51 AM 26.6 °F - 26.6 °F 100% 29.82 in 2.5 mi Calm Calm - N/A   Overcast
5:12 AM 26.6 °F - 26.6 °F 100% 29.81 in 1.8 mi Calm Calm - N/A   Overcast
5:31 AM 26.6 °F - 26.6 °F 100% 29.81 in 1.8 mi Calm Calm - N/A   Overcast
6:12 AM 28.4 °F - 26.6 °F 93% 29.82 in 1.5 mi Calm Calm - N/A   Overcast
6:31 AM 28.4 °F - 26.6 °F 93% 29.82 in 1.5 mi Calm Calm - N/A   Overcast
6:51 AM 28.4 °F - 26.6 °F 93% 29.84 in 1.5 mi Calm Calm - N/A   Overcast
7:12 AM 28.4 °F - 26.6 °F 93% 29.85 in 0.5 mi Calm Calm - N/A Fog Light Freezing Fog
7:31 AM 28.4 °F - 26.6 °F 93% 29.85 in 1.5 mi Calm Calm - N/A   Overcast
7:51 AM 28.4 °F - 26.6 °F 93% 29.86 in 2.0 mi Calm Calm - N/A   Overcast
8:12 AM 28.4 °F - 26.6 °F 93% 29.85 in 0.5 mi Calm Calm - N/A Fog Light Freezing Fog
8:31 AM 28.4 °F - 26.6 °F 93% 29.86 in 0.2 mi Calm Calm - N/A Fog Light Freezing Fog
8:51 AM 28.4 °F 24.6 °F 26.6 °F 93% 29.87 in 0.5 mi ESE 3.5 mph - N/A Fog Light Freezing Fog
9:12 AM 28.4 °F - 26.6 °F 93% 29.86 in 1.0 mi Calm Calm - N/A   Overcast
9:31 AM 28.4 °F - 26.6 °F 93% 29.86 in 1.2 mi Calm Calm - N/A   Overcast
9:51 AM 28.4 °F 24.6 °F 28.4 °F 100% 29.86 in 1.5 mi ESE 3.5 mph - N/A   Overcast
10:12 AM 30.2 °F 26.7 °F 28.4 °F 93% 29.87 in 1.8 mi East 3.5 mph - N/A   Overcast
10:31 AM 30.2 °F 25.4 °F 28.4 °F 93% 29.87 in 2.0 mi SE 4.6 mph - N/A   Overcast
10:51 AM 30.2 °F 25.4 °F 28.4 °F 93% 29.87 in 1.8 mi ESE 4.6 mph - N/A   Overcast
11:11 AM 30.2 °F 25.4 °F 28.4 °F 93% 29.86 in 1.8 mi SE 4.6 mph - N/A   Overcast
11:32 AM 30.2 °F 25.4 °F 28.4 °F 93% 29.85 in 1.8 mi ESE 4.6 mph - N/A   Overcast
11:51 AM 32.0 °F 26.4 °F 30.2 °F 93% 29.85 in 1.8 mi SE 5.8 mph - 0.03 in   Overcast
12:11 PM 32.0 °F 25.6 °F 30.2 °F 93% 29.85 in 2.5 mi SSE 6.9 mph - 0.02 in   Overcast
12:32 PM 33.8 °F 27.7 °F 30.2 °F 87% 29.85 in 2.5 mi SSE 6.9 mph - 0.04 in   Overcast
12:51 PM 33.8 °F 28.6 °F 30.2 °F 87% 29.84 in 2.0 mi SE 5.8 mph - 0.06 in   Overcast
1:11 PM 33.8 °F 28.6 °F 30.2 °F 87% 29.84 in 2.0 mi SSE 5.8 mph - 0.01 in   Overcast
1:32 PM 33.8 °F 30.8 °F 30.2 °F 87% 29.83 in 2.0 mi SE 3.5 mph - 0.03 in   Overcast
1:51 PM 33.8 °F 30.8 °F 30.2 °F 87% 29.82 in 2.5 mi ESE 3.5 mph - 0.04 in   Overcast
2:11 PM 33.8 °F 28.6 °F 30.2 °F 87% 29.81 in 2.5 mi ESE 5.8 mph - N/A   Overcast
2:32 PM 33.8 °F 27.7 °F 30.2 °F 87% 29.81 in 2.5 mi SE 6.9 mph - N/A   Overcast
2:51 PM 33.8 °F 29.6 °F 30.2 °F 87% 29.82 in 1.2 mi ESE 4.6 mph - N/A   Overcast
3:11 PM 33.8 °F 28.6 °F 30.2 °F 87% 29.81 in 1.0 mi ESE 5.8 mph - N/A   Overcast
3:32 PM 33.8 °F 27.7 °F 30.2 °F 87% 29.81 in 1.0 mi ESE 6.9 mph - N/A   Overcast
3:51 PM 33.8 °F 29.6 °F 30.2 °F 87% 29.81 in 0.8 mi ESE 4.6 mph - N/A   Overcast
4:11 PM 33.8 °F 28.6 °F 30.2 °F 87% 29.80 in 0.8 mi ESE 5.8 mph - N/A   Overcast
4:32 PM 33.8 °F 29.6 °F 30.2 °F 87% 29.82 in 0.8 mi SE 4.6 mph - N/A   Overcast
4:51 PM 33.8 °F 28.6 °F 30.2 °F 87% 29.83 in 0.8 mi SE 5.8 mph - N/A   Overcast
5:12 PM 33.8 °F 29.6 °F 30.2 °F 87% 29.82 in 1.0 mi ESE 4.6 mph - N/A   Overcast
5:31 PM 32.0 °F 27.5 °F 30.2 °F 93% 29.82 in 0.8 mi ESE 4.6 mph - N/A   Overcast
5:51 PM 32.0 °F 27.5 °F 30.2 °F 93% 29.81 in 0.8 mi ESE 4.6 mph - N/A   Overcast
6:11 PM 32.0 °F 26.4 °F 30.2 °F 93% 29.80 in 0.8 mi East 5.8 mph - N/A   Overcast
6:31 PM 32.0 °F 25.6 °F 30.2 °F 93% 29.80 in 0.8 mi ESE 6.9 mph - N/A   Overcast
6:51 PM 32.0 °F 26.4 °F 30.2 °F 93% 29.79 in 1.0 mi ESE 5.8 mph - N/A   Overcast
7:11 PM 32.0 °F 24.2 °F 30.2 °F 93% 29.78 in 1.2 mi ESE 9.2 mph - N/A   Overcast
7:31 PM 32.0 °F 24.2 °F 30.2 °F 93% 29.76 in 0.8 mi East 9.2 mph - N/A   Overcast
7:51 PM 32.0 °F 24.8 °F 30.2 °F 93% 29.75 in 1.2 mi East 8.1 mph - N/A   Overcast
8:11 PM 32.0 °F 24.8 °F 30.2 °F 93% 29.75 in 1.0 mi ESE 8.1 mph - N/A   Overcast
8:32 PM 32.0 °F 24.8 °F 30.2 °F 93% 29.78 in 1.0 mi SE 8.1 mph - N/A   Overcast
8:51 PM 30.2 °F 22.6 °F 30.2 °F 100% 29.76 in 2.0 mi ESE 8.1 mph - N/A   Overcast
9:11 PM 30.2 °F 22.6 °F 30.2 °F 100% 29.73 in 3.0 mi East 8.1 mph - N/A   Overcast
9:32 PM 30.2 °F 22.6 °F 30.2 °F 100% 29.73 in 2.0 mi ESE 8.1 mph - N/A   Overcast
9:51 PM 30.2 °F 23.4 °F 30.2 °F 100% 29.70 in 1.0 mi ESE 6.9 mph - N/A   Overcast
10:12 PM 30.2 °F 25.4 °F 30.2 °F 100% 29.68 in 1.5 mi East 4.6 mph - N/A   Overcast
10:31 PM 30.2 °F 22.6 °F 30.2 °F 100% 29.67 in 1.2 mi East 8.1 mph - N/A   Overcast
10:52 PM 30.2 °F 21.9 °F 30.2 °F 100% 29.65 in 2.5 mi East 9.2 mph - N/A   Overcast
11:11 PM 30.2 °F 24.3 °F 30.2 °F 100% 29.64 in 2.0 mi East 5.8 mph - N/A   Overcast
11:31 PM 30.2 °F - 28.4 °F 93% 29.65 in 2.5 mi Calm Calm - N/A   Overcast
11:52 PM 30.2 °F - 28.4 °F 93% 29.65 in 2.5 mi Calm Calm - N/A   Overcast